THORAD AGENA D DEB

Satellite information

Favourite Embed

Satellite Type and Status

DEBRISIN ORBIT

Key statistics

Satellite THORAD AGENA D DEB at a glance.

Uptime

20287

Days in orbit

Revolutions

≈ 14.4

Per day

Orbit

SSO

Sun Synchronous Orbit

Inclination

100.1

Latest

Satellite identification and parameters

Extended collection of information and parameters for THORAD AGENA D DEB.

Object identification

Identified? True

Debris? True

Object name: THORAD AGENA D DEB

International designator: 1970-025EA

Object number (NORAD): 4819

Object ID (CCSDS): 4819

Country: UNITED STATES OF AMERICA (US)

Current information (Y/N): Y

RCS size: SMALL

Orbital parameters

Period: 100.314 minutes

Inclination: 100.0927 deg

SMA: 7151.548 km

Apoapsis: 794.792 km

Periapsis: 752.035 km

RAAN: 269.2133 deg

Eccentricy: 0.0029894

Argument of periapsis: 231.5665 deg

Mean anomaly: 128.2831 deg

Mean motion: 14.35498136 rev/day

Mean motion (dot): 0.00009321 rev/day2

B* drag term: 0.0032392 1/REarth

Two-line elements (TLE)

Creation date: Oct. 21, 2025, 11:56 p.m.

Reference frame: TEME

Reference center: EARTH

Epoch: Oct. 21, 2025, 8:18 p.m. UTC

TLE line 0: 0 THORAD AGENA D DEB

TLE line 1: 1 4819U 70025EA 25294.84590730 .00009321 00000-0 32392-2 0 9990

TLE line 2: 2 4819 100.0927 269.2133 0029894 231.5665 128.2831 14.35498136809926

Live tracking on map

Real-time ground track for satellite THORAD AGENA D DEB.

In-orbit conjunctions

A list of the most updated potential collisions computed for object THORAD AGENA D DEB.

Target Orbit TCA Probability of collision Miss distance Type
COSMOS 923 LEO 2024-11-04 04:55:51 0.00100052 91.0 (m) PAYLOAD
CZ-6A DEB LEO 2024-09-28 11:18:45 0.0006534453 278.0 (m) DEBRIS

Associated space launch

Meteorological research and development satellite

THORAD AGENA D DEB was lifted into orbit during the mission ‘Thorad SLV-2G Agena D | Nimbus 4’, on board a Thorad SLV-2G Agena D space rocket.

The launch took place on April 8, 1970, 8:17 a.m. from Space Launch Complex 2E.

For more information about the launch, click the button.

Launch to space Thorad SLV-2G Agena D | Nimbus 4
Thorad SLV-2G Agena D | Nimbus 4

Agency: N/A

Status: Launch Successful

Launch date: April 8, 1970, 8:17 a.m. UTC

Rocket: Thorad SLV-2G Agena D

Launch pad: Space Launch Complex 2E

Location: Vandenberg SFB, CA, USA

...

Latest news about this satellite

There are no fresh news available about this satellite. Check back as we update our databases every day.


Newsletter sign-up

Weekly statistics, charts and insights to help you stay on top of the space industry.